sat.trackr.live / text

‹ back to catalog

STARLINK-6372

NORAD 57348 · 2023-099W

PAYLOAD ACTIVE UNKNOWN

§ Identity

Operator
Country
US
Launch date
2023-07-16
Launch site
AFETR
Launch vehicle
Mass (kg)
RCS (m²)

Purposes: comms

External: N2YO · Heavens-Above · Gunter

§ Orbital elements

Epoch: 2026-09-20T14:26:54.124512Z

Period
94.27 min
Inclination
43.0014°
Eccentricity
0.0000654
Mean motion
15.27572535 rev/d
Perigee alt
482.6 km
Apogee alt
483.5 km
Semi-major
6,861.2 km
B*
4.5113e-5
RAAN
228.4053°
Arg perigee
260.0392°
Mean anomaly
100.0386°
Rev number
17,592

§ Raw data

STARLINK-63721 57348U 23099W   26263.60201533  .00000979  00000+0  45113-4 0  99912 57348  43.0014 228.4053 0000654 260.0392 100.0386 15.27572535175926

JSON: /api/v1/satellites/57348 · /tle

For live sub-satellite position, see the globe view (requires WebGL).

§ Visibility from observer

Set your observer location to see the next 7 days of passes ≥ 10°. The values pass through the URL so the page stays shareable.

No JS? Fill the form by hand. The geolocation button needs JavaScript.